TimeCDT,TemperatureF,Dew PointF,Humidity,Sea Level PressureIn,VisibilityMPH,Wind Direction,Wind SpeedMPH,Gust SpeedMPH,PrecipitationIn,Events,Conditions,WindDirDegrees,DateUTC
12:13 AM,30.2,28.4,93,30.23,7.0,NE,5.8,-,N/A,Snow,Light Snow,50,2013-05-04 05:13:00
12:32 AM,30.2,28.4,93,30.24,10.0,ENE,3.5,-,N/A,,Overcast,60,2013-05-04 05:32:00
12:53 AM,30.2,28.4,93,30.23,10.0,Calm,Calm,-,N/A,,Overcast,0,2013-05-04 05:53:00
1:13 AM,30.2,28.4,93,30.23,5.0,NE,4.6,-,N/A,,Overcast,50,2013-05-04 06:13:00
1:32 AM,30.2,28.4,93,30.22,2.0,ENE,4.6,-,N/A,Snow,Light Snow,60,2013-05-04 06:32:00
1:53 AM,30.2,28.4,93,30.21,4.0,NE,3.5,-,N/A,Snow,Light Snow,40,2013-05-04 06:53:00
2:13 AM,30.2,28.4,93,30.22,3.0,NE,3.5,-,N/A,Snow,Light Snow,40,2013-05-04 07:13:00
2:32 AM,30.2,28.4,93,30.21,4.0,NE,4.6,-,N/A,,Overcast,40,2013-05-04 07:32:00
2:53 AM,30.2,28.4,93,30.21,5.0,NE,3.5,-,N/A,,Overcast,50,2013-05-04 07:53:00
3:13 AM,30.2,28.4,93,30.20,3.0,NE,4.6,-,N/A,,Overcast,50,2013-05-04 08:13:00
3:32 AM,30.2,28.4,93,30.20,2.5,NE,3.5,-,N/A,,Overcast,50,2013-05-04 08:32:00
3:53 AM,30.2,28.4,93,30.21,2.0,NNE,4.6,-,N/A,,Overcast,30,2013-05-04 08:53:00
4:13 AM,30.2,28.4,93,30.21,10.0,NE,4.6,-,N/A,,Overcast,40,2013-05-04 09:13:00
4:32 AM,30.2,28.4,93,30.20,10.0,NE,4.6,-,N/A,,Overcast,40,2013-05-04 09:32:00
4:53 AM,30.2,28.4,93,30.21,10.0,NNE,3.5,-,N/A,,Overcast,30,2013-05-04 09:53:00
5:13 AM,30.2,28.4,93,30.21,10.0,NNE,4.6,-,N/A,,Overcast,30,2013-05-04 10:13:00
5:32 AM,30.2,28.4,93,30.21,10.0,Calm,Calm,-,N/A,,Overcast,0,2013-05-04 10:32:00
5:53 AM,30.2,28.4,93,30.21,7.0,Calm,Calm,-,N/A,,Overcast,0,2013-05-04 10:53:00
6:12 AM,30.2,28.4,93,30.21,10.0,NNE,3.5,-,N/A,,Overcast,30,2013-05-04 11:12:00
6:33 AM,28.4,28.4,100,30.21,10.0,NNE,5.8,-,N/A,,Overcast,30,2013-05-04 11:33:00
6:53 AM,30.2,28.4,93,30.22,10.0,NNE,3.5,-,N/A,,Overcast,20,2013-05-04 11:53:00
7:12 AM,30.2,28.4,93,30.22,10.0,NE,4.6,-,N/A,,Overcast,40,2013-05-04 12:12:00
7:33 AM,30.2,28.4,93,30.22,10.0,NNE,3.5,-,N/A,,Overcast,30,2013-05-04 12:33:00
7:52 AM,30.2,28.4,93,30.22,10.0,NE,3.5,-,N/A,,Overcast,40,2013-05-04 12:52:00
8:13 AM,30.2,28.4,93,30.22,10.0,NNE,4.6,-,N/A,,Overcast,30,2013-05-04 13:13:00
8:32 AM,30.2,28.4,93,30.22,10.0,NNE,5.8,-,N/A,,Overcast,20,2013-05-04 13:32:00
8:53 AM,30.2,28.4,93,30.22,10.0,NNE,5.8,-,N/A,,Overcast,30,2013-05-04 13:53:00
9:12 AM,30.2,28.4,93,30.22,10.0,NNE,5.8,-,N/A,,Overcast,30,2013-05-04 14:12:00
9:33 AM,30.2,28.4,93,30.22,10.0,NE,4.6,-,N/A,,Overcast,40,2013-05-04 14:33:00
9:53 AM,30.2,30.2,100,30.22,4.0,NNE,4.6,-,N/A,,Overcast,30,2013-05-04 14:53:00
10:12 AM,30.2,30.2,100,30.23,7.0,NNE,5.8,-,N/A,,Overcast,20,2013-05-04 15:12:00
10:33 AM,30.2,30.2,100,30.23,5.0,NNE,5.8,-,N/A,,Overcast,20,2013-05-04 15:33:00
10:53 AM,30.2,30.2,100,30.24,2.0,NNE,5.8,-,N/A,,Overcast,30,2013-05-04 15:53:00
11:12 AM,32.0,30.2,93,30.24,5.0,NE,3.5,-,N/A,,Overcast,40,2013-05-04 16:12:00
11:33 AM,32.0,30.2,93,30.24,4.0,NNE,4.6,-,N/A,,Overcast,30,2013-05-04 16:33:00
11:53 AM,32.0,30.2,93,30.24,5.0,NNE,5.8,-,0.01,,Overcast,20,2013-05-04 16:53:00
12:12 PM,33.8,30.2,87,30.24,7.0,NNE,4.6,-,N/A,Rain,Light Rain,30,2013-05-04 17:12:00
12:38 PM,33.8,30.2,87,30.24,5.0,NNE,5.8,-,N/A,Rain,Rain,20,2013-05-04 17:38:00
12:53 PM,33.8,30.2,87,30.24,7.0,NNE,3.5,-,0.01,Rain,Light Rain,20,2013-05-04 17:53:00
1:12 PM,33.8,32.0,93,30.24,4.0,NNE,3.5,-,0.01,Rain,Light Rain,20,2013-05-04 18:12:00
1:33 PM,33.8,32.0,93,30.24,5.0,Calm,Calm,-,0.02,Rain,Light Rain,0,2013-05-04 18:33:00
1:53 PM,33.8,33.8,100,30.24,10.0,NNE,3.5,-,0.02,Rain,Light Rain,30,2013-05-04 18:53:00
2:12 PM,33.8,32.0,93,30.23,10.0,NNE,5.8,-,N/A,Rain,Light Rain,20,2013-05-04 19:12:00
2:33 PM,33.8,32.0,93,30.24,5.0,NNE,6.9,-,N/A,Rain,Light Rain,30,2013-05-04 19:33:00
2:53 PM,33.8,33.8,100,30.23,5.0,NNE,4.6,-,0.01,Rain,Light Rain,30,2013-05-04 19:53:00
3:12 PM,33.8,33.8,100,30.23,7.0,NNE,5.8,-,0.01,Rain,Light Rain,30,2013-05-04 20:12:00
3:33 PM,35.6,33.8,93,30.23,10.0,NNE,4.6,-,0.01,Rain,Light Rain,30,2013-05-04 20:33:00
3:53 PM,33.8,33.8,100,30.22,10.0,NNE,4.6,-,0.01,Rain,Light Rain,20,2013-05-04 20:53:00
4:12 PM,35.6,33.8,93,30.22,10.0,NNE,4.6,-,N/A,,Overcast,30,2013-05-04 21:12:00
4:33 PM,35.6,33.8,93,30.22,10.0,NNE,4.6,-,N/A,,Overcast,30,2013-05-04 21:33:00
4:53 PM,33.8,33.8,100,30.23,7.0,North,3.5,-,N/A,Rain,Rain,10,2013-05-04 21:53:00
5:12 PM,33.8,33.8,100,30.23,10.0,NNE,3.5,-,0.01,Rain,Light Rain,30,2013-05-04 22:12:00
5:33 PM,35.6,33.8,93,30.23,10.0,Calm,Calm,-,0.01,Rain,Rain,0,2013-05-04 22:33:00
5:53 PM,35.6,33.8,93,30.23,3.0,NNE,3.5,-,0.02,Rain,Rain,20,2013-05-04 22:53:00
6:13 PM,35.6,33.8,93,30.23,10.0,NNE,4.6,-,N/A,,Light Drizzle,30,2013-05-04 23:13:00
6:32 PM,35.6,33.8,93,30.23,10.0,NNE,3.5,-,N/A,,Overcast,30,2013-05-04 23:32:00
6:53 PM,35.6,33.8,93,30.23,10.0,NNE,4.6,-,N/A,,Light Drizzle,20,2013-05-04 23:53:00
7:13 PM,35.6,33.8,93,30.23,10.0,NE,4.6,-,N/A,Rain,Light Rain,50,2013-05-05 00:13:00
7:32 PM,35.6,33.8,93,30.23,10.0,NNE,3.5,-,N/A,Rain,Rain,30,2013-05-05 00:32:00
7:53 PM,35.6,33.8,93,30.24,10.0,NNE,3.5,-,N/A,,Drizzle,30,2013-05-05 00:53:00
8:13 PM,35.6,33.8,93,30.24,10.0,NNE,3.5,-,N/A,,Drizzle,30,2013-05-05 01:13:00
8:33 PM,35.6,33.8,93,30.23,10.0,NNE,3.5,-,N/A,,Light Drizzle,30,2013-05-05 01:33:00
8:53 PM,35.6,33.8,93,30.23,10.0,NE,4.6,-,N/A,,Overcast,40,2013-05-05 01:53:00
9:13 PM,33.8,33.8,100,30.24,10.0,Calm,Calm,-,N/A,,Overcast,0,2013-05-05 02:13:00
9:33 PM,33.8,33.8,100,30.24,10.0,Calm,Calm,-,N/A,,Overcast,0,2013-05-05 02:33:00
9:53 PM,33.8,33.8,100,30.24,10.0,NE,4.6,-,N/A,,Overcast,50,2013-05-05 02:53:00
10:13 PM,33.8,33.8,100,30.24,10.0,NE,3.5,-,N/A,,Overcast,40,2013-05-05 03:13:00
10:33 PM,33.8,33.8,100,30.24,10.0,Calm,Calm,-,N/A,,Overcast,0,2013-05-05 03:33:00
10:53 PM,33.8,33.8,100,30.24,7.0,Calm,Calm,-,N/A,,Overcast,0,2013-05-05 03:53:00
11:13 PM,33.8,33.8,100,30.24,7.0,Calm,Calm,-,N/A,,Overcast,0,2013-05-05 04:13:00
11:33 PM,33.8,33.8,100,30.23,3.0,Calm,Calm,-,N/A,,Overcast,0,2013-05-05 04:33:00
11:53 PM,33.8,33.8,100,30.23,1.0,Calm,Calm,-,N/A,,Overcast,0,2013-05-05 04:53:00